DW8185 Pensacola FL US current weather conditions

sailwx.info

Wind from 335 at 3 knots gusting 6

Air temperature 14.4° C
Dewpoint 10.5° C

Last reported at 2019-Dec-07 18:00 UTC.
Time now 2019-Dec-07 18:45 UTC

Location: N 30°31' W 087°20'.
View on Google Maps.

See reports from other nearby stations

  
Tides and Currents Weather Stations Pressure Air Temp Water Temp Dewpoint Dewpoint Depression Visibility Wind Speed Wind Dir Waves Ship Positions
date/time (UTC)wind fromknots sea level pressurealtimeterstation pressurevisibilityair tempwater tempwave heightnotes
2019-Dec-07 18:00 335 3 gusting 6 14.4
2019-Dec-07 17:45 333 0 gusting 6 15.0
2019-Dec-07 17:31 288 1 gusting 6 14.4
2019-Dec-07 17:15 336 1 gusting 8 13.9
2019-Dec-07 17:00 323 3 gusting 7 13.9
2019-Dec-07 16:45 331 2 gusting 6 13.9
2019-Dec-07 16:30 317 2 gusting 6 13.3
2019-Dec-07 16:15 335 4 gusting 9 13.3
2019-Dec-07 16:00 319 2 gusting 6 13.3
2019-Dec-07 15:45 318 2 gusting 6 13.3
2019-Dec-07 15:30 329 2 gusting 6 13.3
2019-Dec-07 15:15 320 4 gusting 7 13.3
2019-Dec-07 15:00 053 1 gusting 6 13.3
2019-Dec-07 14:45 348 3 gusting 8 13.3
2019-Dec-07 14:30 293 3 gusting 7 13.3
2019-Dec-07 14:15 320 0 gusting 8 13.3
2019-Dec-07 14:00 327 0 gusting 6 13.3
2019-Dec-07 13:45 315 0 gusting 6 13.3
2019-Dec-07 13:31 343 2 gusting 6 13.3
2019-Dec-07 13:17 304 1 gusting 5 13.3
2019-Dec-07 13:02 329 0 gusting 5 12.8
2019-Dec-07 12:47 335 0 gusting 3 12.8
2019-Dec-07 12:31 312 0 gusting 4 12.8
2019-Dec-07 12:17 312 0 gusting 5 12.8
2019-Dec-07 12:01 341 1 gusting 6 12.8
2019-Dec-07 11:47 329 1 gusting 5 12.8
2019-Dec-07 11:31 020 1 gusting 5 12.8
2019-Dec-07 11:16 319 1 gusting 3 12.8
2019-Dec-07 11:01 322 0 gusting 4 12.8
2019-Dec-07 10:46 302 0 gusting 3 12.8
2019-Dec-07 10:31 323 1 gusting 5 13.3
2019-Dec-07 10:16 343 1 gusting 5 13.3
2019-Dec-07 10:00 333 1 gusting 6 13.3
2019-Dec-07 09:46 296 1 gusting 6 13.3
2019-Dec-07 09:31 309 1 gusting 3 13.3
2019-Dec-07 09:15 335 0 gusting 4 13.9
2019-Dec-07 09:02 303 1 gusting 4 13.9
2019-Dec-07 08:45 300 0 gusting 5 13.9
2019-Dec-07 08:30 343 0 gusting 3 13.9
2019-Dec-07 08:15 359 1 gusting 2 13.9
2019-Dec-07 08:00 311 0 gusting 3 14.4
2019-Dec-07 07:45 331 1 gusting 3 14.4
2019-Dec-07 07:30 345 1 gusting 4 15.0
2019-Dec-07 07:16 302 0 gusting 6 14.4
2019-Dec-07 07:00 326 1 gusting 5 14.4
2019-Dec-07 06:46 340 0 gusting 3 14.4
2019-Dec-07 06:30 352 1 gusting 5 14.4
2019-Dec-07 06:15 333 15.0
2019-Dec-07 06:00 319 0 gusting 8 15.0
2019-Dec-07 05:45 300 2 gusting 6 15.0
2019-Dec-07 05:30 319 1 gusting 6 15.6
2019-Dec-07 05:15 311 1 gusting 5 15.0
2019-Dec-07 05:00 301 14.4
2019-Dec-07 04:45 300 15.0
2019-Dec-07 04:30 300 15.0
2019-Dec-07 04:15 302 14.4
2019-Dec-07 04:00 302 15.0
2019-Dec-07 03:45 302 15.0
2019-Dec-07 03:30 303 15.6
2019-Dec-07 03:15 302 16.1
2019-Dec-07 03:00 309 16.1
2019-Dec-07 02:45 309 16.1
2019-Dec-07 02:32 308 16.1
2019-Dec-07 02:17 308 17.2
2019-Dec-07 02:01 308 17.2
2019-Dec-07 01:47 308 17.2
2019-Dec-07 01:31 332 17.8
2019-Dec-07 01:16 333 17.8
2019-Dec-07 01:02 126 17.8
2019-Dec-07 00:47 126 17.8
2019-Dec-07 00:31 126 18.3
2019-Dec-07 00:16 126 18.3
2019-Dec-07 00:01 126 18.9
2019-Dec-06 23:47 120 18.9
2019-Dec-06 23:31 309 18.3
2019-Dec-06 23:16 089 18.3
2019-Dec-06 23:02 089 18.9
2019-Dec-06 22:47 089 19.4
2019-Dec-06 22:31 089 19.4
2019-Dec-06 22:16 097 19.4
2019-Dec-06 22:01 097 20.0
2019-Dec-06 21:46 158 0 gusting 6 20.0
2019-Dec-06 21:31 212 20.6
2019-Dec-06 21:16 141 21.1
2019-Dec-06 21:01 205 21.7
2019-Dec-06 20:46 201 1 gusting 5 21.7
2019-Dec-06 20:31 180 21.7
2019-Dec-06 20:17 250 0 gusting 3 22.2
2019-Dec-06 20:01 251 22.8
2019-Dec-06 19:46 130 0 gusting 4 22.2
2019-Dec-06 19:31 092 0 gusting 5 21.7
2019-Dec-06 19:16 247 1 gusting 6 22.2
2019-Dec-06 19:01 192 22.8
2019-Dec-06 18:47 086 3 gusting 8 22.8
2019-Dec-06 18:31 117 4 gusting 9 22.2
2019-Dec-06 18:16 228 0 gusting 9 22.2
2019-Dec-06 18:00 107 1 gusting 8 21.7
2019-Dec-06 17:45 105 0 gusting 6 21.7
2019-Dec-06 17:30 098 0 gusting 4 21.1
2019-Dec-06 17:15 094 1 gusting 4 20.6
2019-Dec-06 17:00 086 19.4
2019-Dec-06 16:45 117 18.9
2019-Dec-06 16:30 124 17.8
2019-Dec-06 16:15 116 17.2
2019-Dec-06 16:00 102 17.2
2019-Dec-06 15:45 110 16.7
2019-Dec-06 15:32 103 16.1
2019-Dec-06 15:16 309 15.0
2019-Dec-06 15:01 309 14.4
2019-Dec-06 14:46 087 13.9
2019-Dec-06 14:31 108 12.8
2019-Dec-06 14:16 129 11.7
2019-Dec-06 14:00 129 10.6
2019-Dec-06 13:45 125 10.0
2019-Dec-06 13:31 125 8.9
2019-Dec-06 13:15 128 8.3
2019-Dec-06 13:01 128 7.8
2019-Dec-06 12:45 129 7.8
2019-Dec-06 12:30 130 7.8
2019-Dec-06 12:15 131 6.7
2019-Dec-06 12:00 131 6.7
2019-Dec-06 11:46 131 6.7
2019-Dec-06 11:30 131 6.7
2019-Dec-06 11:15 131 7.2
2019-Dec-06 11:00 131 7.2
2019-Dec-06 10:45 131 6.7
2019-Dec-06 10:30 131 6.7
2019-Dec-06 10:15 131 6.7
2019-Dec-06 10:00 131 6.7
2019-Dec-06 09:45 131 6.1
2019-Dec-06 09:31 131 6.1
2019-Dec-06 09:30 131 6.1
2019-Dec-06 09:02 130 6.7
2019-Dec-06 08:46 130 6.1
2019-Dec-06 08:32 130 6.1
2019-Dec-06 08:16 131 6.1
2019-Dec-06 08:02 131 5.6
2019-Dec-06 07:46 131 5.6
2019-Dec-06 07:31 130 5.6
2019-Dec-06 07:16 130 5.6
2019-Dec-06 07:01 130 5.6
2019-Dec-06 06:46 130 5.6
2019-Dec-06 06:30 130 5.6
2019-Dec-06 06:16 127 5.6
2019-Dec-06 06:01 127 5.6
2019-Dec-06 05:46 127 5.6
2019-Dec-06 05:30 127 5.6
2019-Dec-06 05:16 127 5.6
2019-Dec-06 05:01 127 5.6
2019-Dec-06 04:46 124 6.1
2019-Dec-06 04:31 124 6.1
2019-Dec-06 04:16 124 6.1
2019-Dec-06 04:01 124 6.1
2019-Dec-06 03:46 124 6.7
2019-Dec-06 03:30 124 6.7
2019-Dec-06 03:16 124 6.7
2019-Dec-06 03:01 124 6.7
2019-Dec-06 02:45 103 7.2
2019-Dec-06 02:31 103 7.2
2019-Dec-06 02:16 103 7.2
2019-Dec-06 02:00 089 7.2
2019-Dec-06 01:46 088 7.8
2019-Dec-06 01:30 088 7.8
2019-Dec-06 01:17 088 8.3
2019-Dec-06 01:01 088 8.3
2019-Dec-06 00:45 088 8.9
2019-Dec-06 00:30 088 9.4
2019-Dec-06 00:15 088 10.0
2019-Dec-06 00:00 088 10.6
2019-Dec-05 23:46 088 11.1
2019-Dec-05 23:30 088 11.7
2019-Dec-05 23:16 088 12.8
2019-Dec-05 23:00 088 13.9
2019-Dec-05 22:45 088 15.0
2019-Dec-05 22:31 088 16.1
2019-Dec-05 22:15 121 16.7
2019-Dec-05 22:00 113 17.2
2019-Dec-05 21:46 105 17.2
2019-Dec-05 21:30 148 17.8
2019-Dec-05 21:15 217 18.3
2019-Dec-05 21:00 163 18.9
2019-Dec-05 20:45 131 0 gusting 3 19.4
2019-Dec-05 20:31 146 19.4
2019-Dec-05 20:15 115 19.4
2019-Dec-05 20:00 112 19.4
2019-Dec-05 19:45 116 0 gusting 3 19.4
2019-Dec-05 19:30 288 19.4
2019-Dec-05 19:15 115 19.4
2019-Dec-05 19:00 292 19.4
2019-Dec-05 18:45 202 0 gusting 3 18.9
2019-Dec-05 18:30 216 18.9
2019-Dec-05 18:17 097 18.3
2019-Dec-05 18:15 097 18.3
2019-Dec-05 18:01 279 17.8